K2MIT Weather Reports


Display with metric or nautical units.
time (UTC)temp
F
wind
direction
speed
MPH
gust
MPH
rain 1hr
in
rain 24hr
in
rain mn
in
humidity
%
barometer
mb
20260903063042 67 0 0.0 0.0 0.03 0.28 0.13 92 1016.2
20260903061550 67 0 0.0 0.0 0.05 0.28 0.13 91 1016.6
20260903060043 67 0 0.0 0.0 0.07 0.27 0.12 91 1016.8
20260903054547 67 0 0.0 2.0 0.11 0.27 0.12 91 1016.7
20260903053100 67 0 0.0 1.0 0.10 0.25 0.10 91 1016.9
20260903051543 67 0 0.0 1.0 0.08 0.23 0.08 91 1018.1
20260903050043 67 305 3.0 7.0 0.05 0.20 0.05 91 1018.9
20260903044551 67 290 0.0 2.0 0.01 0.16 0.01 91 1018.2
20260903043045 67 0 0.0 2.0 0.00 0.15 0.00 91 1018.4
20260903041548 67 0 0.0 0.0 0.00 0.15 0.00 91 1018.2
20260903040041 67 0 0.0 0.0 0.00 0.15 0.00 91 1018.4
20260903034549 67 0 0.0 0.0 0.00 0.15 0.15 91 1018.7
20260903033057 67 0 0.0 0.0 0.00 0.15 0.15 91 1018.2
20260903031541 66 0 0.0 2.0 0.00 0.15 0.15 91 1018.2
20260903030044 66 0 0.0 3.0 0.00 0.15 0.15 91 1018.6
20260903024544 66 101 0.0 3.0 0.00 0.15 0.15 91 1018.5
20260903023041 66 0 0.0 2.0 0.00 0.15 0.15 91 1018.7
20260903021548 66 94 1.0 2.0 0.00 0.15 0.15 91 1018.8
20260903020041 66 82 0.0 2.0 0.00 0.15 0.15 91 1018.6
20260903014549 66 90 0.0 2.0 0.00 0.15 0.15 91 1018.8
20260903013042 66 0 0.0 2.0 0.00 0.15 0.15 91 1019.0
20260903011543 66 91 0.0 3.0 0.00 0.15 0.15 91 1019.1
20260903010038 66 99 1.0 4.0 0.00 0.15 0.15 91 1019.2
20260903004550 66 100 1.0 3.0 0.00 0.15 0.15 91 1019.4
20260903003040 66 166 0.0 3.0 0.00 0.15 0.15 91 1019.5
20260903001538 66 99 1.0 4.0 0.00 0.15 0.15 91 1019.1
20260903000038 65 101 1.0 4.0 0.00 0.15 0.15 91 1018.6
20260902234538 65 68 1.0 3.0 0.00 0.15 0.15 91 1018.7
20260902233039 65 135 2.0 4.0 0.00 0.15 0.15 91 1018.8
20260902231548 66 79 2.0 6.0 0.00 0.15 0.15 90 1018.7
20260902230037 65 81 2.0 4.0 0.00 0.15 0.15 90 1019.1
20260902224538 65 71 1.0 4.0 0.00 0.15 0.15 90 1019.6
20260902223039 65 76 1.0 6.0 0.00 0.15 0.15 90 1019.7
20260902221540 65 85 0.0 3.0 0.00 0.15 0.15 90 1019.9
20260902220035 65 96 1.0 3.0 0.00 0.15 0.15 90 1020.0
20260902214539 65 86 2.0 4.0 0.00 0.15 0.15 90 1019.6
20260902213039 65 96 2.0 6.0 0.00 0.15 0.15 90 1019.6
20260902211535 65 102 1.0 5.0 0.00 0.15 0.15 90 1019.7
20260902210045 65 146 1.0 6.0 0.00 0.15 0.15 90 1019.6
20260902204543 65 87 3.0 8.0 0.00 0.15 0.15 90 1019.6
20260902203041 66 92 2.0 6.0 0.04 0.15 0.15 90 1019.6
20260902201548 66 117 2.0 7.0 0.08 0.15 0.15 90 1019.7
20260902200040 67 178 2.0 5.0 0.10 0.15 0.15 90 1019.5
20260902194539 67 99 2.0 5.0 0.14 0.15 0.15 89 1019.7
20260902193040 67 78 0.0 2.0 0.09 0.10 0.10 88 1020.4
20260902191537 68 74 1.0 3.0 0.06 0.07 0.07 87 1020.2
20260902190035 68 49 1.0 4.0 0.04 0.05 0.05 86 1020.5
20260902184543 68 5 1.0 6.0 0.00 0.01 0.01 84 1021.0
20260902183049 69 63 1.0 7.0 0.00 0.01 0.01 83 1020.3
20260902181549 69 92 2.0 8.0 0.00 0.01 0.01 83 1020.0
20260902180054 69 92 2.0 9.0 0.00 0.01 0.01 83 1020.0
20260902174540 69 87 3.0 9.0 0.00 0.04 0.01 83 1020.4
20260902173046 70 157 2.0 8.0 0.00 0.04 0.01 82 1020.4
20260902171544 69 29 2.0 9.0 0.00 0.04 0.01 83 1020.4
20260902170046 69 128 3.0 8.0 0.00 0.04 0.01 84 1020.5
20260902164551 68 90 3.0 8.0 0.00 0.05 0.01 84 1020.5
20260902163046 68 109 3.0 9.0 0.00 0.05 0.01 84 1020.6
20260902161541 67 84 4.0 11.0 0.00 0.05 0.01 85 1020.7
20260902160037 67 64 3.0 8.0 0.00 0.05 0.01 85 1021.0
20260902154557 68 91 4.0 11.0 0.00 0.11 0.01 84 1020.8
20260902153040 67 86 4.0 11.0 0.00 0.11 0.01 85 1020.8
20260902151540 67 90 4.0 8.0 0.00 0.11 0.01 85 1020.9
20260902150045 67 111 4.0 10.0 0.00 0.11 0.01 84 1021.0
20260902144547 68 72 3.0 10.0 0.00 0.13 0.01 84 1020.7
20260902143041 68 83 2.0 9.0 0.00 0.13 0.01 85 1020.8
20260902141539 67 68 1.0 4.0 0.00 0.13 0.01 87 1020.7
20260902140041 65 0 0.0 4.0 0.00 0.13 0.01 88 1020.9
20260902134541 65 106 1.0 5.0 0.00 0.13 0.01 89 1021.0
20260902133047 64 111 2.0 6.0 0.00 0.13 0.01 91 1020.5
20260902131544 63 264 2.0 8.0 0.00 0.13 0.01 92 1020.5
20260902130044 62 46 2.0 5.0 0.00 0.13 0.01 92 1020.3
20260902124539 62 81 3.0 7.0 0.00 0.13 0.01 92 1020.6
20260902123035 62 111 2.0 5.0 0.00 0.13 0.01 92 1020.4
20260902121539 62 0 1.0 5.0 0.00 0.13 0.01 92 1020.3
20260902120040 61 80 2.0 5.0 0.00 0.13 0.01 92 1020.3
20260902114538 62 68 2.0 7.0 0.00 0.13 0.01 92 1020.3
20260902113042 62 51 2.0 5.0 0.00 0.13 0.01 92 1020.5
20260902111540 62 69 2.0 7.0 0.00 0.13 0.01 92 1020.3
20260902110039 62 59 2.0 5.0 0.00 0.13 0.01 92 1020.2
20260902104544 62 87 2.0 7.0 0.00 0.13 0.01 92 1020.2
20260902103045 62 23 1.0 5.0 0.01 0.13 0.01 92 1019.9
20260902101544 62 86 1.0 7.0 0.01 0.13 0.01 92 1020.0
20260902100039 62 47 0.0 6.0 0.01 0.13 0.01 92 1019.8
20260902094538 62 28 1.0 7.0 0.01 0.13 0.01 92 1019.7
20260902093043 62 0 0.0 4.0 0.00 0.12 0.00 91 1019.7
20260902091545 62 61 2.0 5.0 0.00 0.12 0.00 91 1019.7
20260902090039 62 0 0.0 4.0 0.00 0.12 0.00 91 1019.6
20260902084548 63 96 1.0 4.0 0.00 0.12 0.00 91 1019.6
20260902083044 63 40 2.0 7.0 0.00 0.12 0.00 91 1019.4
20260902081543 63 0 1.0 4.0 0.00 0.12 0.00 91 1019.2
20260902080035 63 0 1.0 7.0 0.00 0.12 0.00 91 1018.8
20260902074538 63 62 1.0 5.0 0.00 0.12 0.00 91 1018.5
20260902073037 63 55 2.0 8.0 0.00 0.12 0.00 91 1018.5
20260902071544 63 126 1.0 8.0 0.00 0.12 0.00 91 1018.5
20260902070040 63 85 0.0 5.0 0.00 0.12 0.00 91 1018.7
20260902064539 63 49 0.0 4.0 0.00 0.32 0.00 91 1018.8